Location: Lussas
(44.6119°N, 4.4726°E)
Time: 16:33:36
(UTC+00:00)

Cosmos 1386 Rocket - Pass Details

Date: 26 November 2020
Orbit: 929 x 1006 km, 83.0° (Epoch: 27 January)

Event Time Altitude Azimuth Distance (km) Brightness Sun altitude
Rises 04:07:03 0° 189° (S) 3,720 7.5 -29.1°
Reaches altitude 10° 04:09:35 10° 190° (S) 2,774 6.8 -28.6°
Maximum altitude 04:15:59 81° 277° (W) 1,019 4.4 -27.5°
Drops below altitude 10° 04:22:23 10° 6° (N) 2,768 6.9 -26.3°
Sets 04:24:54 0° 8° (N) 3,712 7.6 -25.9°
